Location: Montamat
(43.4852°N, 0.8444°E)
Time: 08:12:06
(UTC+00:00)

Cosmos 1812 Rocket - Pass Details

Date: 14 May 2026
Orbit: 599 x 623 km, 82.5° (Epoch: 4 June)

Event Time Altitude Azimuth Distance (km) Brightness Sun altitude
Exits shadow 23:25:17 53° 21° (NNE) 766 4.2 -27.4°
Drops below altitude 10° 23:28:43 10° 11° (N) 1,998 7.1 -27.4°
Sets 23:30:58 0° 10° (N) 2,911 8.2 -27.5°
